Location: LDNL
(36.4545°S, 141.6685°E)
Time: 12:50:34
(UTC+10:00)

A-11 Canister half - Pass Details

Date: 17 August 2022
Orbit: 1524 x 1684 km, 47.3° (Epoch: 26 September)

Event Time Altitude Azimuth Distance (km) Brightness Sun altitude
Rises 13:16:55 0° 7° (N) 4,759 12.4 39.2°
Reaches altitude 10° 13:22:10 10° 30° (NNE) 3,750 11.7 39.0°
Maximum altitude 13:26:22 14° 57° (ENE) 3,440 11.2 38.8°
Drops below altitude 10° 13:30:31 10° 84° (E) 3,722 11.0 38.6°
Sets 13:35:38 0° 107° (ESE) 4,696 11.3 38.3°
